Location: DARK SKY Beskydy - Park tmavé oblohy, www.darkskybeskydy.cz
(49.4926°N, 18.5016°E)
Time: 12:05:28
(UTC+02:00)

Vanguard 1 - Pass Details

Date: 24 February 2024
Orbit: 653 x 3825 km, 34.2° (Epoch: 12 April)

Event Time Altitude Azimuth Distance (km) Brightness Sun altitude
Rises 20:07:46 0° 234° (SW) 5,631 14.4 -27.7°
Reaches altitude 10° 20:11:07 10° 227° (SW) 4,992 13.9 -28.2°
Maximum altitude 20:25:45 46° 161° (SSE) 4,030 12.7 -30.5°
Enters shadow 20:30:48 41° 133° (SE) 4,477 12.8 -31.2°
Drops below altitude 10° 20:46:36 10° 99° (E) 6,931 - -33.5°
Sets 20:52:19 0° 94° (E) 7,907 - -34.3°
